Location: Eckley Miners' Village
(40.9930°N, 75.8630°W)
Time: 23:45:46
(UTC-04:00)

Vanguard 1 Rocket - Pass Details

Date: 22 March 2026
Orbit: 654 x 4213 km, 34.3° (Epoch: 20 April)

Event Time Altitude Azimuth Distance (km) Brightness Sun altitude
Exits shadow 05:22:18 18° 215° (SW) 3,248 9.7 -19.6°
Maximum altitude 05:27:50 32° 166° (SSE) 1,936 9.0 -18.6°
Drops below altitude 10° 05:33:06 10° 104° (ESE) 2,554 10.6 -17.6°
Sets 05:35:22 0° 93° (E) 3,281 11.6 -17.2°
